x

New London Ledge Ct - Ledge Light Weather Station (ldlc3) Weather Station

8:45 - Sun 4th Dec 2016 All times are EST. -5 hours from GMT.

  • Wind
    9mph, 11mph gusts
  • Ar Temp 37°f
  • Sea Pressure 1021.7mb
  • New London Ledge Ct - Ledge Light Weather Station
  • New London Ledge Ct - Ledge Light Weather Station

More Historic Weather Station data

Upgrade to MSW Pro to gain access to the past 30 days of data for over 8000 Wavebouys and Weather Stations around the globe.

Join Pro

Comparision Forecast

View Surf forecast
   
Dom 12/04 8:45 9 11 mph 1021.7mb 37f
8:30 8 9 mph 1021.7mb 37f
8:15 9 11 mph 1021.7mb 35f
8:00 10 13 mph 1021.6mb 35f
7:45 9 11 mph 1021.4mb 35f
7:30 10 11 mph 1021.4mb 35f
7:15 10 13 mph 1021mb 34f
7:00 10 14 mph 1020.6mb 35f
6:45 10 13 mph 1020.6mb 34f
6:30 9 11 mph 1020.6mb 35f
6:15 9 11 mph 1020.6mb 35f
6:00 9 13 mph 1020.6mb 35f
5:45 8 10 mph 1020.7mb 35f
5:30 10 13 mph 1020.5mb 35f
5:15 10 13 mph 1020.4mb 35f
5:00 13 16 mph 1020.1mb 35f
4:45 14 17 mph 1020.2mb 36f
4:30 15 18 mph 1020.2mb 36f
4:15 13 17 mph 1020.4mb 36f
4:00 16 20 mph 1020.1mb 36f
3:45 15 17 mph 1020.2mb 36f
3:30 15 20 mph 1020.3mb 36f
3:15 11 14 mph 1020.4mb 35f
3:00 14 17 mph 1020.3mb 36f
2:45 13 16 mph 1020.4mb 36f
2:30 10 13 mph 1020.2mb 36f
2:15 13 15 mph 1020.1mb 36f
2:00 9 11 mph 1020.1mb 37f
1:45 10 13 mph 1020.1mb 37f
1:30 11 13 mph 1019.7mb 37f
1:15 11 14 mph 1019.6mb 38f
1:00 9 10 mph 1019.6mb 38f
12:45 10 13 mph 1019.4mb 38f
12:30 9 14 mph 1019mb 38f
12:15 13 17 mph 1018.9mb 39f
12:00 18 25 mph 1018.6mb 39f
Sáb 12/03 6:45 23 30 mph 1016.7mb 41f
6:30 17 25 mph 1016.7mb 42f
6:15 21 28 mph 1016.3mb 42f
6:00 17 23 mph 1016.5mb 42f
5:45 21 25 mph 1016.4mb 42f
5:30 21 29 mph 1016.2mb 42f
5:15 17 23 mph 1016mb 42f
5:00 21 25 mph 1015.6mb 43f
4:45 23 30 mph 1015.2mb 43f
4:30 20 24 mph 1014.8mb 43f
4:15 20 25 mph 1014.6mb 43f
4:00 22 25 mph 1014.3mb 43f
3:45 18 25 mph 1014.2mb 44f
3:30 30 38 mph 1013.6mb 44f
3:15 28 38 mph 1013.3mb 44f
3:00 23 33 mph 1013.4mb 44f
2:45 24 31 mph 1013.2mb 44f
2:30 16 20 mph 1013.1mb 45f
2:15 25 33 mph 1012.6mb 44f
2:00 25 38 mph 1012.5mb 45f
1:45 26 34 mph 1012.4mb 45f
1:30 30 34 mph 1012.2mb 46f
1:15 26 39 mph 1012.3mb 46f
1:00 30 39 mph 1012mb 46f
12:45 28 33 mph 1012mb 46f
12:30 24 32 mph 1012mb 46f
12:15 24 37 mph 1012mb 46f
12:00 24 31 mph 1012.1mb 46f
11:45 26 36 mph 1012.1mb 46f
11:30 24 31 mph 1012.2mb 45f
11:15 28 37 mph 1012.3mb 45f
11:00 28 37 mph 1012mb 45f
10:45 25 32 mph 1012.3mb 45f
10:30 25 33 mph 1012.2mb 44f
10:15 26 34 mph 1012.2mb 44f
10:00 25 31 mph 1012.5mb 44f
9:45 29 40 mph 1012.2mb 44f
9:30 28 37 mph 1012.2mb 43f
9:15 26 33 mph 1012.3mb 43f
9:00 21 31 mph 1012.2mb 43f
8:45 24 38 mph 1012.1mb 42f
8:30 22 31 mph 1012mb 43f
8:15 23 39 mph 1011.7mb 43f
8:00 23 33 mph 1011.5mb 42f
7:45 25 31 mph 1011.2mb 42f
7:30 23 30 mph 1011mb 42f
7:15 21 26 mph 1010.9mb 41f
7:00 18 29 mph 1010.8mb 41f
6:45 20 28 mph 1010.6mb 42f
6:30 20 28 mph 1010.6mb 42f
6:15 20 25 mph 1010.4mb 42f
6:00 25 33 mph 1010.1mb 42f
5:45 23 31 mph 1010mb 42f
5:30 22 30 mph 1009.9mb 42f
5:15 22 31 mph 1009.9mb 42f
5:00 21 26 mph 1010mb 42f
4:45 21 29 mph 1009.9mb 42f
4:30 18 26 mph 1010mb 42f
4:15 18 23 mph 1009.8mb 42f
4:00 18 23 mph 1009.6mb 42f
3:45 15 18 mph 1009.8mb 42f
3:30 13 17 mph 1009.7mb 42f
3:15 15 18 mph 1009.6mb 42f
3:00 15 18 mph 1009.5mb 42f
2:45 18 23 mph 1009.4mb 43f
2:30 18 21 mph 1009.4mb 43f
2:15 20 24 mph 1009.1mb 43f
2:00 20 24 mph 1009mb 43f
1:45 17 22 mph 1009mb 43f
1:30 21 23 mph 1008.9mb 43f
1:15 17 24 mph 1009.1mb 43f
1:00 20 24 mph 1008.8mb 43f
12:45 18 22 mph 1008.7mb 43f
12:30 18 23 mph 1008.7mb 43f
12:15 17 21 mph 1008.8mb 43f
12:00 16 21 mph 1009mb 43f
Sex 12/02 6:30 17 22 mph 1008.8mb 48f
6:15 16 21 mph 1008.7mb 48f
6:00 18 23 mph 1008.5mb 49f
5:45 21 26 mph 1008.5mb 49f
5:30 17 21 mph 1008.5mb 49f
5:15 16 22 mph 1008.5mb 49f
5:00 20 24 mph 1008.5mb 49f
4:15 15 20 mph 1008.4mb 50f
4:00 16 20 mph 1008.3mb 50f
3:45 14 16 mph 1008.3mb 50f
3:30 13 15 mph 1008.3mb 50f
3:15 13 16 mph 1008.2mb 50f
3:00 14 20 mph 1008.1mb 50f
2:45 16 20 mph 1008.1mb 50f
2:30 20 24 mph 1007.9mb 50f
2:15 15 20 mph 1008mb 50f
2:00 21 26 mph 1007.9mb 50f
1:45 15 20 mph 1007.9mb 49f
1:30 17 20 mph 1008mb 48f
1:15 18 22 mph 1008.1mb 47f
1:00 18 22 mph 1008.3mb 47f
12:45 21 23 mph 1008.4mb 47f
12:30 21 23 mph 1008.5mb 47f
12:15 22 25 mph 1008.7mb 47f
12:00 21 24 mph 1008.9mb 47f
11:45 21 24 mph 1009mb 46f
11:30 22 24 mph 1009.1mb 46f
11:15 17 20 mph 1009.5mb 47f
11:00 14 17 mph 1009.6mb 46f
10:45 17 21 mph 1009.8mb 46f
10:30 18 24 mph 1010mb 46f
10:15 20 22 mph 1010.2mb 45f
10:00 21 24 mph 1010.2mb 44f
9:45 20 23 mph 1010.2mb 44f
9:30 22 25 mph 1009.9mb 44f
9:15 21 25 mph 1009.8mb 43f
9:00 18 23 mph 1009.8mb 43f
8:45 16 21 mph 1010mb 42f
8:30 16 22 mph 1010.1mb 41f
8:15 18 23 mph 1010mb 41f
8:00 18 22 mph 1010mb 41f
7:45 20 24 mph 1009.7mb 41f
7:30 20 24 mph 1009.5mb 42f
7:15 22 25 mph 1009.3mb 42f
7:00 21 24 mph 1009.3mb 42f
6:45 22 25 mph 1009.2mb 42f
6:30 20 23 mph 1009.2mb 42f
6:15 18 21 mph 1009.2mb 42f
6:00 16 21 mph 1009.2mb 42f
5:45 14 17 mph 1009.2mb 42f
5:30 14 16 mph 1009.1mb 42f
5:15 15 18 mph 1009.1mb 41f
5:00 16 20 mph 1008.8mb 42f
4:45 18 23 mph 1008.6mb 42f
4:30 17 22 mph 1008.6mb 42f
4:15 17 23 mph 1008.7mb 43f
4:00 20 24 mph 1008.5mb 43f
3:45 21 26 mph 1008.4mb 43f
3:30 23 26 mph 1008.3mb 44f
3:15 23 31 mph 1008.1mb 44f
3:00 24 29 mph 1008.2mb 44f
2:45 21 25 mph 1008.2mb 44f
2:30 24 30 mph 1008.1mb 45f
2:15 22 26 mph 1008mb 45f
2:00 20 24 mph 1008mb 44f
1:45 20 23 mph 1008mb 44f
1:30 18 23 mph 1007.9mb 44f
1:15 18 23 mph 1007.6mb 43f
1:00 16 18 mph 1007.4mb 44f
12:45 16 18 mph 1007.3mb 44f
12:30 16 20 mph 1007.1mb 44f
12:15 18 23 mph 1006.8mb 44f
12:00 18 22 mph 1006.8mb 44f
Qui 12/01 6:45 24 31 mph 1004.2mb 50f
6:30 21 25 mph 1004.2mb 50f
6:15 20 24 mph 1003.9mb 50f
6:00 18 24 mph 1003.6mb 50f
5:45 23 32 mph 1003.4mb 50f
5:30 22 28 mph 1003.4mb 50f
5:15 21 25 mph 1003.3mb 50f
5:00 23 29 mph 1003.1mb 51f
4:45 24 33 mph 1002.8mb 51f
4:30 26 33 mph 1002.4mb 51f
4:15 24 30 mph 1002.2mb 52f
4:00 26 32 mph 1002mb 52f
3:45 24 31 mph 1001.8mb 53f
3:30 24 29 mph 1001.5mb 54f
3:15 24 29 mph 1001.1mb 54f
3:00 23 30 mph 1000.9mb 55f
2:45 21 25 mph 1000.7mb 55f
2:30 22 26 mph 1000.4mb 54f
2:15 25 29 mph 1000.1mb 54f
2:00 26 31 mph 1000mb 54f
12:45 23 26 mph 999.7mb 55f
12:30 22 26 mph 999.8mb 54f
12:15 22 25 mph 999.7mb 54f
12:00 18 22 mph 1000mb 54f
11:45 21 23 mph 1000.3mb 54f
11:30 21 24 mph 1000.3mb 54f
11:15 20 24 mph 1000.4mb 53f
11:00 22 25 mph 1000.4mb 53f
10:45 16 21 mph 1000.6mb 54f
10:30 22 25 mph 1000.7mb 55f
10:15 15 20 mph 1000.9mb 55f
10:00 17 21 mph 1000.8mb 55f
9:45 13 14 mph 1000.7mb 54f
9:30 13 15 mph 1000.4mb 53f
9:15 14 16 mph 1000.3mb 53f
9:00 15 18 mph 1000mb 52f
8:45 16 20 mph 999.7mb 52f
8:30 17 21 mph 999.7mb 51f
8:15 16 18 mph 999.4mb 51f
8:00 15 18 mph 998.9mb 52f
7:45 13 15 mph 998.6mb 51f
7:30 10 13 mph 998.2mb 52f
7:15 10 14 mph 997.9mb 52f
7:00 8 11 mph 997.9mb 53f
6:45 10 13 mph 997.7mb 53f
6:30 13 16 mph 997.7mb 55f
6:15 17 21 mph 997.5mb 55f
6:00 31 40 mph 997.6mb 58f
5:45 24 29 mph 996.6mb 58f
5:30 22 29 mph 996.8mb 57f
5:15 21 24 mph 996.3mb 57f
5:00 22 25 mph 996.3mb 57f
4:45 20 23 mph 996mb 57f
4:30 18 23 mph 996.1mb 57f
4:15 24 28 mph 996mb 58f
4:00 24 26 mph 996.3mb 58f
3:45 22 25 mph 995.9mb 58f
3:30 23 29 mph 996.2mb 59f
3:15 23 25 mph 996.8mb 58f
3:00 22 26 mph 996.9mb 58f
2:45 10 11 mph 997.5mb 56f
2:30 14 15 mph 997.6mb 53f
2:15 16 18 mph 997.9mb 54f
2:00 16 18 mph 998.8mb 53f
1:45 17 18 mph 999.3mb 52f
1:30 17 21 mph 999.9mb 53f
1:15 21 23 mph 1000mb 52f
1:00 20 23 mph 1000.3mb 52f
12:45 21 25 mph 1000.9mb 51f
12:30 29 33 mph 1001.1mb 51f
12:15 28 33 mph 1001.3mb 51f
12:00 24 30 mph 1002.3mb 51f
Qua 11/30 6:45 28 34 mph 1009.7mb 50f
6:15 33 38 mph 1009.1mb 50f
6:00 30 36 mph 1009.7mb 50f
5:45 28 31 mph 1010.1mb 51f
5:30 26 31 mph 1010.6mb 51f
5:15 29 36 mph 1010.1mb 52f
5:00 24 29 mph 1011.3mb 52f
4:45 29 33 mph 1010.7mb 52f
4:30 24 26 mph 1011.1mb 52f
4:15 24 29 mph 1010.9mb 52f
4:00 22 25 mph 1011.5mb 52f
3:45 23 25 mph 1011.2mb 52f
3:30 23 25 mph 1011.3mb 52f
3:15 23 25 mph 1011.3mb 53f
3:00 24 28 mph 1011.2mb 53f
2:45 23 25 mph 1011.1mb 54f
2:30 20 23 mph 1011.3mb 55f